TimeMDT,TemperatureF,Dew PointF,Humidity,Sea Level PressureIn,VisibilityMPH,Wind Direction,Wind SpeedMPH,Gust SpeedMPH,PrecipitationIn,Events,Conditions,WindDirDegrees,DateUTC
12:53 AM,19.0,12.9,77,29.96,10.0,North,10.4,17.3,N/A,,Clear,10,2013-04-20 06:53:00
1:53 AM,19.9,14.0,78,29.93,10.0,North,5.8,-,N/A,,Clear,360,2013-04-20 07:53:00
2:10 AM,19.4,14.0,80,30.02,10.0,North,5.8,-,N/A,,Mostly Cloudy,350,2013-04-20 08:10:00
2:53 AM,18.0,12.0,78,29.91,10.0,NE,6.9,-,N/A,,Overcast,40,2013-04-20 08:53:00
3:22 AM,19.4,14.0,80,30.00,10.0,North,5.8,-,N/A,,Overcast,10,2013-04-20 09:22:00
3:53 AM,19.9,15.1,81,29.88,8.0,NNE,10.4,-,0.00,Snow,Light Snow,20,2013-04-20 09:53:00
4:15 AM,21.2,15.8,80,29.99,6.0,North,9.2,-,0.00,Snow,Light Snow,360,2013-04-20 10:15:00
4:53 AM,21.0,15.1,78,29.86,6.0,NNE,8.1,-,0.00,Snow,Light Snow,30,2013-04-20 10:53:00
5:16 AM,19.4,14.0,80,29.99,6.0,NW,3.5,-,0.00,Snow,Light Snow,310,2013-04-20 11:16:00
5:53 AM,21.0,17.1,85,29.88,10.0,NNE,5.8,-,0.00,,Overcast,20,2013-04-20 11:53:00
6:53 AM,23.0,17.1,78,29.88,9.0,Variable,3.5,-,0.00,,Overcast,0,2013-04-20 12:53:00
7:53 AM,24.1,17.1,75,29.90,9.0,Calm,Calm,-,N/A,,Overcast,0,2013-04-20 13:53:00
8:53 AM,25.0,17.1,72,29.91,10.0,North,6.9,-,N/A,,Overcast,360,2013-04-20 14:53:00
9:53 AM,28.9,18.0,64,29.88,10.0,North,6.9,-,N/A,,Overcast,350,2013-04-20 15:53:00
10:53 AM,30.0,19.9,66,29.90,10.0,NNW,11.5,-,N/A,,Overcast,340,2013-04-20 16:53:00
11:53 AM,30.9,17.1,57,29.89,10.0,West,13.8,19.6,N/A,,Mostly Cloudy,270,2013-04-20 17:53:00
12:53 PM,34.0,18.0,52,29.86,10.0,West,12.7,20.7,N/A,,Scattered Clouds,270,2013-04-20 18:53:00
1:26 PM,30.2,23.0,75,30.02,2.5,NW,12.7,21.9,0.00,Snow,Light Snow,320,2013-04-20 19:26:00
1:34 PM,30.2,23.0,75,30.02,1.5,NNW,5.8,17.3,0.00,Snow,Light Snow,330,2013-04-20 19:34:00
1:39 PM,30.2,23.0,75,30.02,3.0,NW,12.7,17.3,0.00,Snow,Light Snow,310,2013-04-20 19:39:00
1:53 PM,33.1,21.0,61,29.87,10.0,WNW,9.2,-,0.00,,Overcast,290,2013-04-20 19:53:00
2:53 PM,35.1,18.0,50,29.86,10.0,Variable,5.8,-,N/A,,Mostly Cloudy,0,2013-04-20 20:53:00
3:53 PM,37.9,18.0,45,29.83,10.0,NW,12.7,18.4,N/A,,Mostly Cloudy,320,2013-04-20 21:53:00
4:34 PM,35.6,19.4,52,30.00,10.0,NW,12.7,20.7,N/A,,Mostly Cloudy,320,2013-04-20 22:34:00
4:53 PM,35.1,21.0,57,29.86,10.0,NNW,11.5,20.7,N/A,,Mostly Cloudy,330,2013-04-20 22:53:00
5:53 PM,33.1,19.9,59,29.88,10.0,West,15.0,23.0,N/A,,Overcast,270,2013-04-20 23:53:00
6:53 PM,30.0,21.0,69,29.91,10.0,WNW,13.8,26.5,0.00,,Mostly Cloudy,290,2013-04-21 00:53:00
7:53 PM,30.0,19.0,64,29.94,10.0,WNW,5.8,-,N/A,,Partly Cloudy,290,2013-04-21 01:53:00
8:17 PM,26.6,23.0,86,30.09,1.5,West,11.5,19.6,0.00,Snow,Light Snow,260,2013-04-21 02:17:00
8:24 PM,26.6,24.8,93,30.09,1.0,WSW,4.6,-,0.00,Snow,Light Snow,250,2013-04-21 02:24:00
8:29 PM,26.6,24.8,93,30.10,3.0,SW,3.5,-,0.00,Snow,Light Snow,230,2013-04-21 02:29:00
8:42 PM,26.6,23.0,86,30.10,10.0,WSW,3.5,-,0.00,,Overcast,250,2013-04-21 02:42:00
8:53 PM,27.0,21.9,81,29.98,10.0,WNW,4.6,-,0.00,,Overcast,300,2013-04-21 02:53:00
9:53 PM,27.0,21.0,78,29.97,10.0,West,5.8,-,0.00,,Overcast,270,2013-04-21 03:53:00
10:48 PM,26.6,21.2,80,30.13,2.5,WNW,10.4,-,0.00,Snow,Light Snow,290,2013-04-21 04:48:00
10:53 PM,26.1,23.0,88,29.99,1.5,WNW,9.2,-,0.00,Snow,Light Snow,290,2013-04-21 04:53:00
11:04 PM,24.8,23.0,93,30.13,0.8,WNW,9.2,-,0.00,Snow,Light Snow,290,2013-04-21 05:04:00
11:18 PM,24.8,23.0,93,30.13,0.8,WNW,6.9,-,0.02,Snow,Light Snow,290,2013-04-21 05:18:00
11:23 PM,24.8,24.8,100,30.13,1.0,Variable,4.6,-,0.02,Snow,Light Snow,0,2013-04-21 05:23:00
11:28 PM,24.8,24.8,100,30.13,2.0,WNW,4.6,-,0.02,Snow,Light Snow,300,2013-04-21 05:28:00
11:37 PM,24.8,23.0,93,30.13,8.0,Calm,Calm,-,0.02,,Overcast,0,2013-04-21 05:37:00
11:50 PM,24.8,21.2,86,30.13,10.0,Calm,Calm,-,0.02,,Overcast,0,2013-04-21 05:50:00
11:53 PM,25.0,23.0,92,29.99,10.0,SE,3.5,-,0.02,,Overcast,130,2013-04-21 05:53:00